sat.trackr.live / text

‹ back to catalog

ONEWEB-0587

NORAD 54654 · 2022-166N

PAYLOAD ACTIVE UNKNOWN

§ Identity

Operator
Country
UK
Launch date
2022-12-08
Launch site
AFETR
Launch vehicle
Mass (kg)
RCS (m²)

Purposes: comms

External: N2YO · Heavens-Above · Gunter

§ Orbital elements

Epoch: 2026-05-25T01:07:56.174016Z

Period
108.94 min
Inclination
87.9264°
Eccentricity
0.0001635
Mean motion
13.21826970 rev/d
Perigee alt
1,176.5 km
Apogee alt
1,179.0 km
Semi-major
7,555.9 km
B*
-3.2121e-5
RAAN
248.5709°
Arg perigee
104.8049°
Mean anomaly
255.3266°
Rev number
16,862

§ Raw data

ONEWEB-05871 54654U 22166N   26145.04717794  .00000000  00000+0 -32121-4 0  99912 54654  87.9264 248.5709 0001635 104.8049 255.3266 13.21826970168629

JSON: /api/v1/satellites/54654 · /tle

For live sub-satellite position, see the globe view (requires WebGL).

§ Visibility from observer

Set your observer location to see the next 7 days of passes ≥ 10°. The values pass through the URL so the page stays shareable.

No JS? Fill the form by hand. The geolocation button needs JavaScript.